GW4572 Weather Reports


Display with metric or nautical units.
time (UTC)temp
F
wind
direction
speed
MPH
gust
MPH
rain 1hr
in
rain 24hr
in
rain mn
in
humidity
%
barometer
mb
20260902045455 73 242 0.0 0.0 0.00 0.00 0.00 91 1024.8
20260902044952 73 241 2.0 3.0 0.00 0.00 0.00 90 1024.9
20260902044451 73 225 1.0 2.0 0.00 0.00 0.00 91 1024.7
20260902043947 73 227 1.0 2.0 0.00 0.00 0.00 91 1024.5
20260902043442 72 237 1.0 2.0 0.00 0.00 0.00 92 1024.7
20260902042937 72 238 1.0 2.0 0.00 0.00 0.00 91 1024.9
20260902042437 72 227 2.0 3.0 0.00 0.00 0.00 91 1024.7
20260902041932 72 243 2.0 3.0 0.00 0.00 0.00 92 1024.7
20260902041426 72 230 2.0 3.0 0.00 0.00 0.00 91 1024.3
20260902040926 72 237 2.0 3.0 0.00 0.00 0.00 91 1024.5
20260902040420 72 223 3.0 4.0 0.00 0.00 0.00 91 1024.5
20260902035920 72 227 2.0 3.0 0.00 0.00 0.00 92 1024.5
20260902035415 71 229 2.0 3.0 0.00 0.00 0.00 92 1024.4
20260902034914 72 215 0.0 3.0 0.00 0.00 0.00 91 1024.3
20260902034410 71 266 2.0 2.0 0.00 0.00 0.00 92 1024.4
20260902033908 71 239 2.0 3.0 0.00 0.00 0.00 92 1024.3
20260902033402 71 226 2.0 3.0 0.00 0.00 0.00 91 1024.4
20260902032901 71 220 2.0 3.0 0.00 0.00 0.00 91 1024.4
20260902032357 71 216 3.0 3.0 0.00 0.00 0.00 91 1024.4
20260902031857 71 217 2.0 2.0 0.00 0.00 0.00 91 1024.3
20260902031347 71 214 2.0 3.0 0.00 0.00 0.00 91 1024.3
20260902030842 71 210 0.0 0.0 0.00 0.00 0.00 92 1024.2
20260902030336 71 212 2.0 4.0 0.00 0.00 0.00 91 1024.4
20260902025835 71 218 2.0 3.0 0.00 0.00 0.00 92 1024.4
20260902025327 71 210 2.0 3.0 0.00 0.00 0.00 92 1024.3
20260902024826 71 210 3.0 3.0 0.00 0.00 0.00 92 1024.3
20260902024322 71 221 3.0 3.0 0.00 0.00 0.00 92 1024.5
20260902023817 71 227 1.0 2.0 0.00 0.00 0.00 92 1024.7
20260902023312 71 229 0.0 0.0 0.00 0.00 0.00 92 1024.6
20260902022811 71 231 0.0 2.0 0.00 0.00 0.00 91 1024.5
20260902022307 71 229 3.0 3.0 0.00 0.00 0.00 92 1024.5
20260902021803 72 219 3.0 4.0 0.00 0.00 0.00 92 1024.7
20260902021303 72 233 2.0 3.0 0.00 0.00 0.00 92 1024.4
20260902020759 72 229 2.0 4.0 0.00 0.00 0.00 91 1024.4
20260902020255 72 241 4.0 6.0 0.00 0.00 0.00 91 1024.4
20260902015750 72 227 3.0 4.0 0.00 0.00 0.00 91 1024.3
20260902015246 72 256 3.0 4.0 0.00 0.00 0.00 91 1024.4
20260902014741 72 219 3.0 4.0 0.00 0.00 0.00 90 1024.5
20260902014238 72 227 2.0 4.0 0.00 0.00 0.00 91 1024.4
20260902013736 72 305 2.0 4.0 0.00 0.00 0.00 91 1024.4
20260902013232 72 240 2.0 3.0 0.00 0.00 0.00 91 1024.2
20260902012727 72 229 2.0 4.0 0.00 0.00 0.00 92 1024.2
20260902012223 72 308 3.0 3.0 0.00 0.00 0.00 93 1024.3
20260902011718 72 240 0.0 4.0 0.00 0.00 0.00 93 1024.1
20260902011217 72 233 3.0 3.0 0.00 0.00 0.00 92 1024.2
20260902010712 72 227 1.0 6.0 0.00 0.00 0.00 91 1024.1
20260902010208 72 256 3.0 3.0 0.00 0.00 0.00 92 1024.4
20260902005706 73 231 2.0 3.0 0.00 0.00 0.00 92 1024.2
20260902005201 72 1 3.0 4.0 0.00 0.00 0.00 93 1024.2
20260902004656 72 279 1.0 3.0 0.00 0.00 0.00 93 1024.2
20260902004150 72 237 3.0 4.0 0.00 0.00 0.00 93 1024.2
20260902003646 72 220 3.0 4.0 0.00 0.00 0.00 93 1024.2
20260902003142 73 246 2.0 2.0 0.00 0.00 0.00 92 1024.2
20260902002636 73 284 1.0 4.0 0.00 0.00 0.00 92 1023.9
20260902002131 73 236 0.0 2.0 0.00 0.00 0.00 92 1023.8
20260902001626 73 297 2.0 3.0 0.00 0.00 0.00 91 1023.9
20260902001120 73 263 3.0 3.0 0.00 0.00 0.00 90 1023.9
20260902000616 73 256 2.0 3.0 0.00 0.00 0.00 90 1023.9
20260902000111 73 229 2.0 3.0 0.00 0.00 0.00 90 1023.8
20260901235611 73 233 3.0 4.0 0.00 0.00 0.00 89 1023.8
20260901235107 74 225 2.0 3.0 0.00 0.00 0.00 89 1023.9
20260901234605 74 232 3.0 4.0 0.00 0.00 0.00 88 1023.7
20260901234101 74 226 4.0 4.0 0.00 0.00 0.00 87 1023.9
20260901233600 74 222 3.0 3.0 0.00 0.00 0.00 88 1023.7
20260901233056 74 226 2.0 4.0 0.00 0.00 0.00 87 1023.9
20260901232551 74 230 1.0 3.0 0.00 0.00 0.00 87 1023.9
20260901232046 74 223 1.0 3.0 0.00 0.00 0.00 86 1023.8
20260901231543 75 209 3.0 6.0 0.00 0.00 0.00 85 1023.9
20260901231039 75 210 2.0 4.0 0.00 0.00 0.00 84 1023.8
20260901230539 75 215 3.0 6.0 0.00 0.00 0.00 83 1023.8
20260901230034 75 113 1.0 4.0 0.00 0.00 0.00 82 1024.1
20260901225530 75 200 2.0 4.0 0.00 0.00 0.00 82 1024.1
20260901225030 76 115 2.0 3.0 0.00 0.00 0.00 81 1024.1
20260901224526 76 201 4.0 6.0 0.00 0.00 0.00 80 1024.1
20260901224021 76 191 1.0 3.0 0.00 0.00 0.00 79 1024.3
20260901223516 76 199 0.0 3.0 0.00 0.00 0.00 79 1024.1
20260901223011 76 234 3.0 4.0 0.00 0.00 0.00 78 1024.2
20260901222507 77 202 3.0 6.0 0.00 0.00 0.00 78 1024.1
20260901222003 77 190 2.0 4.0 0.00 0.00 0.00 79 1024.1
20260901221459 77 211 3.0 6.0 0.00 0.00 0.00 79 1024.2
20260901220954 77 219 3.0 3.0 0.00 0.00 0.00 80 1024.1
20260901220453 76 232 5.0 9.0 0.00 0.00 0.00 81 1024.1
20260901215952 76 217 3.0 4.0 0.00 0.00 0.00 83 1024.2
20260901215450 76 207 1.0 3.0 0.00 0.00 0.00 83 1023.9
20260901214950 76 219 4.0 8.0 0.00 0.00 0.00 82 1023.9
20260901214448 76 204 2.0 3.0 0.00 0.00 0.00 83 1024.1
20260901213943 76 210 4.0 6.0 0.00 0.00 0.00 82 1023.9
20260901213438 76 204 3.0 3.0 0.00 0.00 0.00 83 1023.9
20260901212937 76 217 3.0 4.0 0.00 0.00 0.00 82 1024.2
20260901212433 77 222 3.0 6.0 0.00 0.00 0.00 81 1023.9
20260901211930 76 227 4.0 4.0 0.00 0.00 0.00 82 1023.9
20260901211425 77 204 2.0 3.0 0.00 0.00 0.00 81 1023.9
20260901210920 77 227 2.0 6.0 0.00 0.00 0.00 81 1024.2
20260901210416 77 183 2.0 7.0 0.00 0.00 0.00 80 1024.2
20260901205913 77 228 5.0 7.0 0.00 0.00 0.00 80 1023.9
20260901205407 77 248 5.0 6.0 0.00 0.00 0.00 80 1024.1
20260901204902 77 229 5.0 7.0 0.00 0.00 0.00 80 1024.2
20260901204358 78 216 3.0 7.0 0.00 0.00 0.00 79 1024.2
20260901203858 78 210 5.0 6.0 0.00 0.00 0.00 79 1024.3
20260901203352 81 209 2.0 3.0 0.00 0.00 0.00 75 1024.2
20260901202847 80 117 2.0 4.0 0.00 0.00 0.00 75 1024.2
20260901202342 80 221 4.0 6.0 0.00 0.00 0.00 76 1024.3
20260901201838 80 227 4.0 4.0 0.00 0.00 0.00 77 1024.4
20260901201338 80 220 4.0 4.0 0.00 0.00 0.00 77 1024.6
20260901200831 80 226 5.0 6.0 0.00 0.00 0.00 77 1024.7
20260901200328 79 228 4.0 6.0 0.00 0.00 0.00 78 1024.7
20260901195826 79 189 3.0 8.0 0.00 0.00 0.00 77 1024.8
20260901195324 79 202 3.0 6.0 0.00 0.00 0.00 78 1024.7
20260901194821 79 212 1.0 3.0 0.00 0.00 0.00 79 1024.5
20260901194314 78 194 0.0 4.0 0.00 0.00 0.00 77 1024.7
20260901193811 78 229 6.0 8.0 0.00 0.00 0.00 79 1024.5
20260901193309 78 132 2.0 4.0 0.00 0.00 0.00 79 1024.6
20260901192804 78 217 3.0 6.0 0.00 0.00 0.00 79 1024.7
20260901192255 79 224 4.0 6.0 0.00 0.00 0.00 80 1024.6
20260901191750 79 198 2.0 4.0 0.00 0.00 0.00 79 1024.7
20260901191246 79 226 5.0 6.0 0.00 0.00 0.00 78 1024.9
20260901190741 79 214 2.0 6.0 0.00 0.00 0.00 77 1024.8
20260901190236 80 203 2.0 7.0 0.00 0.00 0.00 78 1024.8
20260901185734 80 224 4.0 6.0 0.00 0.00 0.00 78 1024.9
20260901185232 81 217 4.0 4.0 0.00 0.00 0.00 76 1024.9
20260901184728 80 196 2.0 4.0 0.00 0.00 0.00 77 1025.0
20260901184223 80 227 4.0 8.0 0.00 0.00 0.00 75 1025.1
20260901183720 81 240 6.0 9.0 0.00 0.00 0.00 75 1025.4
20260901183219 82 201 1.0 6.0 0.00 0.00 0.00 73 1025.4
20260901182716 82 201 2.0 4.0 0.00 0.00 0.00 72 1025.3
20260901182214 81 224 4.0 7.0 0.00 0.00 0.00 74 1025.6
20260901181710 82 230 4.0 9.0 0.00 0.00 0.00 73 1025.4
20260901181203 83 221 3.0 7.0 0.00 0.00 0.00 71 1025.6
20260901180657 83 196 0.0 4.0 0.00 0.00 0.00 70 1025.7
20260901180151 83 210 2.0 7.0 0.00 0.00 0.00 71 1025.7
20260901175650 82 202 1.0 3.0 0.00 0.00 0.00 73 1025.7
20260901175145 82 199 2.0 2.0 0.00 0.00 0.00 72 1025.8
20260901174640 81 217 1.0 6.0 0.00 0.00 0.00 74 1025.9
20260901174136 82 210 2.0 3.0 0.00 0.00 0.00 73 1025.7
20260901173631 82 207 3.0 6.0 0.00 0.00 0.00 73 1025.8
20260901173132 82 134 2.0 6.0 0.00 0.00 0.00 72 1025.5
20260901172628 82 212 6.0 8.0 0.00 0.00 0.00 72 1025.4
20260901172126 82 177 0.0 4.0 0.00 0.00 0.00 73 1025.3
20260901171625 82 223 3.0 4.0 0.00 0.00 0.00 74 1025.5
20260901171120 81 225 4.0 8.0 0.00 0.00 0.00 74 1025.5
20260901170619 81 222 2.0 6.0 0.00 0.00 0.00 72 1025.5
20260901170114 81 228 4.0 4.0 0.00 0.00 0.00 75 1025.3
20260901165613 81 230 3.0 4.0 0.00 0.00 0.00 73 1025.4
20260901165109 81 214 2.0 4.0 0.00 0.00 0.00 75 1025.5
20260901164604 79 201 1.0 3.0 0.00 0.00 0.00 76 1025.6
20260901164059 80 221 1.0 4.0 0.00 0.00 0.00 76 1025.5
20260901163554 82 244 4.0 4.0 0.00 0.00 0.00 72 1025.4
20260901163054 82 260 1.0 2.0 0.00 0.00 0.00 73 1025.5
20260901162548 81 259 2.0 6.0 0.00 0.00 0.00 74 1025.4
20260901162048 81 277 4.0 8.0 0.00 0.00 0.00 73 1025.6
20260901161541 80 239 4.0 7.0 0.00 0.00 0.00 77 1025.4
20260901161041 82 258 6.0 7.0 0.00 0.00 0.00 72 1025.5
20260901160538 82 255 3.0 6.0 0.00 0.00 0.00 75 1025.6
20260901160032 82 240 2.0 7.0 0.00 0.00 0.00 74 1025.3
20260901155531 81 264 1.0 4.0 0.00 0.00 0.00 75 1025.3
20260901155027 80 240 5.0 8.0 0.00 0.00 0.00 73 1025.4
20260901154527 79 259 2.0 7.0 0.00 0.00 0.00 78 1025.4
20260901154022 79 250 3.0 7.0 0.00 0.00 0.00 77 1025.3
20260901153516 79 248 4.0 6.0 0.00 0.00 0.00 76 1025.4
20260901153010 80 267 2.0 4.0 0.00 0.00 0.00 77 1025.4
20260901152505 79 259 2.0 4.0 0.00 0.00 0.00 77 1025.1
20260901152004 79 250 3.0 7.0 0.00 0.00 0.00 77 1025.3
20260901151500 78 250 4.0 7.0 0.00 0.00 0.00 77 1025.4
20260901150959 80 256 5.0 6.0 0.00 0.00 0.00 77 1025.4
20260901150457 80 255 1.0 6.0 0.00 0.00 0.00 77 1025.3
20260901145955 80 240 2.0 6.0 0.00 0.00 0.00 76 1025.0
20260901145449 78 235 4.0 7.0 0.00 0.00 0.00 79 1025.3
20260901144949 78 246 1.0 4.0 0.00 0.00 0.00 81 1025.0
20260901144445 76 249 4.0 6.0 0.00 0.00 0.00 82 1025.4
20260901143940 75 258 4.0 4.0 0.00 0.00 0.00 84 1025.3
20260901143436 76 259 4.0 6.0 0.00 0.00 0.00 83 1025.6
20260901142932 77 245 2.0 3.0 0.00 0.00 0.00 81 1025.1
20260901142431 76 243 3.0 4.0 0.00 0.00 0.00 84 1025.3
20260901141926 76 254 4.0 4.0 0.00 0.00 0.00 83 1025.4
20260901141421 78 267 4.0 6.0 0.00 0.00 0.00 81 1025.1
20260901140916 77 268 3.0 7.0 0.00 0.00 0.00 81 1025.3
20260901140414 76 258 4.0 7.0 0.00 0.00 0.00 83 1025.4
20260901135908 76 249 4.0 9.0 0.00 0.00 0.00 84 1025.4
20260901135404 74 239 3.0 4.0 0.00 0.00 0.00 86 1025.3
20260901134859 73 236 3.0 6.0 0.00 0.00 0.00 88 1025.5
20260901134354 73 248 3.0 7.0 0.00 0.00 0.00 87 1025.6
20260901133849 74 239 3.0 6.0 0.00 0.00 0.00 86 1025.4
20260901133348 75 268 2.0 4.0 0.00 0.00 0.00 84 1025.6
20260901132846 76 261 5.0 7.0 0.00 0.00 0.00 84 1025.4
20260901132341 76 249 3.0 6.0 0.00 0.00 0.00 84 1025.4
20260901131835 74 256 3.0 7.0 0.00 0.00 0.00 86 1025.4
20260901131335 75 254 2.0 4.0 0.00 0.00 0.00 86 1025.4
20260901130830 76 255 3.0 6.0 0.00 0.00 0.00 85 1025.3
20260901130325 75 238 3.0 6.0 0.00 0.00 0.00 85 1025.3
20260901125822 74 253 3.0 4.0 0.00 0.00 0.00 85 1025.5
20260901125316 74 248 4.0 4.0 0.00 0.00 0.00 86 1025.4
20260901124811 73 241 3.0 6.0 0.00 0.00 0.00 90 1025.5
20260901124306 73 241 3.0 6.0 0.00 0.00 0.00 90 1025.5
20260901123801 0 214 4.0 4.0 0.00 0.00 0.00 1025.3
20260901123256 0 207 3.0 4.0 0.00 0.00 0.00 1025.4
20260901122754 0 215 3.0 6.0 0.00 0.00 0.00 1025.3
20260901122248 0 208 3.0 4.0 0.00 0.00 0.00 1025.3
20260901121742 0 208 3.0 4.0 0.00 0.00 0.00 1025.3
20260901121237 0 198 5.0 6.0 0.00 0.00 0.00 1025.4
20260901120737 0 198 4.0 6.0 0.00 0.00 0.00 1025.1
20260901120232 0 201 3.0 6.0 0.00 0.00 0.00 1025.3
20260901115727 0 200 2.0 4.0 0.00 0.00 0.00 1025.4
20260901115223 0 198 4.0 4.0 0.00 0.00 0.00 1025.3
20260901114721 0 192 1.0 3.0 0.00 0.00 0.00 1025.0
20260901114220 0 187 0.0 3.0 0.00 0.00 0.00 1025.0
20260901113713 0 182 3.0 4.0 0.00 0.00 0.00 1024.9
20260901113209 0 177 2.0 4.0 0.00 0.00 0.00 1024.9
20260901112708 0 171 2.0 4.0 0.00 0.00 0.00 1025.3
20260901112202 0 169 2.0 3.0 0.00 0.00 0.00 1024.8
20260901111702 0 170 3.0 3.0 0.00 0.00 0.00 1024.8
20260901111156 0 168 1.0 3.0 0.00 0.00 0.00 1024.8
20260901110651 0 166 2.0 3.0 0.00 0.00 0.00 1024.8
20260901110146 0 158 1.0 3.0 0.00 0.00 0.00 1024.7
20260901105643 0 155 2.0 2.0 0.00 0.00 0.00 1024.6
20260901105142 0 157 2.0 2.0 0.00 0.00 0.00 1024.7
20260901104638 0 157 2.0 2.0 0.00 0.00 0.00 1024.6
20260901104133 0 156 2.0 2.0 0.00 0.00 0.00 1024.8
20260901103632 0 153 2.0 2.0 0.00 0.00 0.00 1024.6
20260901103127 0 153 1.0 2.0 0.00 0.00 0.00 1024.6
20260901102622 0 151 1.0 2.0 0.00 0.00 0.00 1024.7
20260901102116 0 146 0.0 0.0 0.00 0.00 0.00 1024.7
20260901101613 0 150 0.0 0.0 0.00 0.00 0.00 1024.8
20260901101112 0 152 0.0 0.0 0.00 0.00 0.00 1024.8
20260901100611 0 152 0.0 0.0 0.00 0.00 0.00 1024.8
20260901100106 0 152 0.0 0.0 0.00 0.00 0.00 1024.6
20260901095604 0 152 0.0 0.0 0.00 0.00 0.00 1024.7
20260901095102 0 155 0.0 0.0 0.00 0.00 0.00 1024.6
20260901094557 0 157 0.0 0.0 0.00 0.00 0.00 1024.8
20260901094057 0 159 1.0 2.0 0.00 0.00 0.00 1024.6
20260901093551 0 159 1.0 2.0 0.00 0.00 0.00 1024.5
20260901093046 0 172 0.0 0.0 0.00 0.00 0.00 1024.7
20260901092542 0 168 0.0 2.0 0.00 0.00 0.00 1024.6
20260901092038 69 170 1.0 2.0 0.00 0.00 0.00 94 1024.7
20260901091534 69 171 2.0 3.0 0.00 0.00 0.00 94 1024.6
20260901091033 69 177 1.0 2.0 0.00 0.00 0.00 94 1024.6
20260901090533 0 181 2.0 2.0 0.00 0.00 0.00 1024.6
20260901090030 69 185 2.0 3.0 0.00 0.00 0.00 93 1024.6
20260901085524 69 182 2.0 2.0 0.00 0.00 0.00 93 1024.5
20260901085020 69 186 2.0 3.0 0.00 0.00 0.00 93 1024.5
20260901084516 69 186 1.0 2.0 0.00 0.00 0.00 93 1024.5
20260901084012 70 190 1.0 2.0 0.00 0.00 0.00 93 1024.6
20260901083506 70 190 1.0 2.0 0.00 0.00 0.00 92 1024.5
20260901083004 70 191 2.0 3.0 0.00 0.00 0.00 92 1024.6
20260901082459 70 190 0.0 0.0 0.00 0.00 0.00 92 1024.7
20260901081954 70 191 2.0 2.0 0.00 0.00 0.00 92 1024.8
20260901081449 70 189 1.0 2.0 0.00 0.00 0.00 92 1024.6
20260901080945 69 188 2.0 3.0 0.00 0.00 0.00 92 1024.6
20260901080444 69 180 2.0 3.0 0.00 0.00 0.00 93 1024.5
20260901075944 0 179 2.0 2.0 0.00 0.00 0.00 1024.4
20260901075440 69 177 2.0 2.0 0.00 0.00 0.00 93 1024.8
20260901074933 69 177 2.0 2.0 0.00 0.00 0.00 93 1024.9
20260901074428 69 175 2.0 2.0 0.00 0.00 0.00 94 1024.8
20260901073923 69 175 2.0 2.0 0.00 0.00 0.00 94 1024.7
20260901073420 69 170 2.0 3.0 0.00 0.00 0.00 94 1024.8
20260901072914 69 170 2.0 3.0 0.00 0.00 0.00 94 1024.9
20260901072409 68 169 2.0 3.0 0.00 0.00 0.00 94 1024.8
20260901071904 68 161 1.0 2.0 0.00 0.00 0.00 95 1025.3
20260901071403 0 155 2.0 2.0 0.00 0.00 0.00 1024.9
20260901070902 0 151 2.0 2.0 0.00 0.00 0.00 1024.8
20260901070358 0 145 1.0 2.0 0.00 0.00 0.00 1025.0
20260901065856 66 144 2.0 2.0 0.00 0.00 0.00 97 1024.9
20260901065352 66 141 2.0 2.0 0.00 0.00 0.00 97 1025.1
20260901064847 66 141 2.0 2.0 0.00 0.00 0.00 97 1025.0
20260901064344 66 141 0.0 0.0 0.00 0.00 0.00 97 1025.1
20260901063841 66 143 0.0 1.0 0.00 0.00 0.00 97 1025.0
20260901063337 66 145 1.0 1.0 0.00 0.00 0.00 97 1025.1
20260901062832 67 148 1.0 2.0 0.00 0.00 0.00 97 1025.4
20260901062328 67 147 1.0 2.0 0.00 0.00 0.00 97 1025.3
20260901061824 66 147 2.0 2.0 0.00 0.00 0.00 97 1025.5
20260901061318 67 148 2.0 2.0 0.00 0.00 0.00 96 1025.4
20260901060813 67 148 2.0 2.0 0.00 0.00 0.00 96 1025.1
20260901060309 66 150 2.0 2.0 0.00 0.00 0.00 96 1025.5
20260901055804 67 150 2.0 3.0 0.00 0.00 0.00 96 1025.3
20260901055300 67 150 2.0 2.0 0.00 0.00 0.00 96 1025.4
20260901054757 67 150 2.0 2.0 0.00 0.00 0.00 96 1025.5
20260901054254 67 151 2.0 2.0 0.00 0.00 0.00 96 1025.6
20260901053749 67 154 2.0 2.0 0.00 0.00 0.00 95 1025.5
20260901053244 67 154 2.0 2.0 0.00 0.00 0.00 95 1025.7
20260901052739 67 155 2.0 2.0 0.00 0.00 0.00 95 1025.6
20260901052235 67 155 2.0 3.0 0.00 0.00 0.00 95 1025.7
20260901051734 67 155 2.0 3.0 0.00 0.00 0.00 95 1025.6
20260901051228 67 155 2.0 2.0 0.00 0.00 0.00 95 1025.7
20260901050724 67 155 2.0 2.0 0.00 0.00 0.00 95 1025.7
20260901050219 67 156 2.0 3.0 0.00 0.00 0.00 95 1025.5